| time (UTC) | temp F | wind direction | speed MPH | gust MPH | rain 1hr in | rain 24hr in | rain mn in | humidity % | barometer mb |
| 20260506230805 | 77 | 8 | 11.0 | 9.0 | 0.00 | 0.00 | 0.00 | 6 | |
| 20260506230307 | 77 | 338 | 11.0 | 10.0 | 0.00 | 0.00 | 0.00 | 6 | |
| 20260506224811 | 76 | 23 | 10.0 | 7.0 | 0.00 | 0.00 | 0.00 | 6 | |
| 20260506224313 | 76 | 41 | 15.0 | 19.0 | 0.00 | 0.00 | 0.00 | 6 | |
| 20260506223816 | 76 | 46 | 13.0 | 10.0 | 0.00 | 0.00 | 0.00 | 6 | |
| 20260506223318 | 76 | 39 | 12.0 | 12.0 | 0.00 | 0.00 | 0.00 | 6 | |
| 20260506222820 | 76 | 11 | 11.0 | 13.0 | 0.00 | 0.00 | 0.00 | 6 | |
| 20260506222323 | 76 | 1 | 10.0 | 6.0 | 0.00 | 0.00 | 0.00 | 6 | |
| 20260506221822 | 76 | 347 | 7.0 | 7.0 | 0.00 | 0.00 | 0.00 | 6 | |
| 20260506221324 | 75 | 52 | 5.0 | 3.0 | 0.00 | 0.00 | 0.00 | 7 | |
| 20260506220827 | 76 | 52 | 0.0 | 0.0 | 0.00 | 0.13 | 0.00 | 6 | |
| 20260506220329 | 75 | 28 | 10.0 | 12.0 | 0.00 | 0.00 | 0.00 | 7 | |
| 20260506215831 | 75 | 28 | 11.0 | 14.0 | 0.00 | 0.00 | 0.00 | 7 | |
| 20260506215334 | 75 | 48 | 12.0 | 10.0 | 0.00 | 0.00 | 0.00 | 7 | |
| 20260506214833 | 75 | 15 | 7.0 | 10.0 | 0.00 | 0.00 | 0.00 | 8 | |
| 20260506214336 | 75 | 332 | 10.0 | 11.0 | 0.00 | 0.00 | 0.00 | 8 | |
| 20260506213837 | 75 | 356 | 9.0 | 7.0 | 0.00 | 0.00 | 0.00 | 8 | |
| 20260506213339 | 75 | 49 | 9.0 | 12.0 | 0.00 | 0.00 | 0.00 | 8 | |
| 20260506212842 | 75 | 62 | 6.0 | 7.0 | 0.00 | 0.00 | 0.00 | 8 | |
| 20260506211843 | 74 | 41 | 10.0 | 9.0 | 0.00 | 0.00 | 0.00 | 9 | |
| 20260506211346 | 74 | 73 | 8.0 | 10.0 | 0.00 | 0.00 | 0.00 | 9 | |
| 20260506210848 | 74 | 60 | 9.0 | 10.0 | 0.00 | 0.00 | 0.00 | 9 | |
| 20260506205854 | 74 | 42 | 6.0 | 6.0 | 0.00 | 0.00 | 0.00 | 9 | |
| 20260506205356 | 74 | 45 | 12.0 | 6.0 | 0.00 | 0.00 | 0.00 | 9 | |
| 20260506204854 | 74 | 45 | 12.0 | 12.0 | 0.00 | 0.00 | 0.00 | 9 | |
| 20260506204356 | 74 | 18 | 10.0 | 13.0 | 0.00 | 0.00 | 0.00 | 9 | |
| 20260506203859 | 74 | 86 | 5.0 | 3.0 | 0.00 | 0.00 | 0.00 | 9 | |
| 20260506203401 | 74 | 69 | 7.0 | 10.0 | 0.00 | 0.00 | 0.00 | 9 | |
| 20260506202903 | 73 | 55 | 12.0 | 6.0 | 0.00 | 0.00 | 0.00 | 9 | |
| 20260506202407 | 73 | 62 | 11.0 | 10.0 | 0.00 | 0.00 | 0.00 | 9 | |
| 20260506201905 | 73 | 32 | 11.0 | 12.0 | 0.00 | 0.00 | 0.00 | 8 | |
| 20260506201407 | 73 | 4 | 9.0 | 3.0 | 0.00 | 0.00 | 0.00 | 9 | |
| 20260506200412 | 74 | 11 | 4.0 | 6.0 | 0.00 | 0.00 | 0.00 | 9 | |
| 20260506195914 | 73 | 42 | 3.0 | 7.0 | 0.00 | 0.00 | 0.00 | 9 | |
| 20260506195418 | 73 | 7 | 5.0 | 7.0 | 0.00 | 0.00 | 0.00 | 9 | |
| 20260506194916 | 73 | 359 | 8.0 | 6.0 | 0.00 | 0.00 | 0.00 | 10 | |
| 20260506194418 | 72 | 359 | 5.0 | 9.0 | 0.00 | 0.00 | 0.00 | 11 | |
| 20260506193921 | 71 | 20 | 9.0 | 8.0 | 0.00 | 0.00 | 0.00 | 12 | |
| 20260506193423 | 71 | 27 | 10.0 | 10.0 | 0.00 | 0.00 | 0.00 | 12 | |
| 20260506192926 | 71 | 359 | 11.0 | 12.0 | 0.00 | 0.00 | 0.00 | 12 | |
| 20260506192428 | 70 | 349 | 13.0 | 11.0 | 0.00 | 0.00 | 0.00 | 12 | |
| 20260506191927 | 70 | 13 | 11.0 | 10.0 | 0.00 | 0.00 | 0.00 | 12 | |
| 20260506191429 | 70 | 347 | 10.0 | 12.0 | 0.00 | 0.00 | 0.00 | 13 | |
| 20260506190931 | 70 | 7 | 12.0 | 13.0 | 0.00 | 0.00 | 0.00 | 13 | |
| 20260506190434 | 70 | 309 | 9.0 | 12.0 | 0.00 | 0.00 | 0.00 | 13 | |
| 20260506185936 | 70 | 3 | 6.0 | 6.0 | 0.00 | 0.00 | 0.00 | 13 | |
| 20260506185439 | 69 | 325 | 9.0 | 5.0 | 0.00 | 0.00 | 0.00 | 13 | |
| 20260506184440 | 69 | 345 | 10.0 | 10.0 | 0.00 | 0.00 | 0.00 | 15 | |
| 20260506183943 | 69 | 332 | 8.0 | 5.0 | 0.00 | 0.00 | 0.00 | 15 | |
| 20260506183445 | 69 | 14 | 9.0 | 13.0 | 0.00 | 0.00 | 0.00 | 15 | |
| 20260506182947 | 69 | 352 | 11.0 | 7.0 | 0.00 | 0.00 | 0.00 | 15 | |
| 20260506182451 | 69 | 4 | 8.0 | 7.0 | 0.00 | 0.00 | 0.00 | 15 | |
| 20260506181949 | 68 | 10 | 9.0 | 8.0 | 0.00 | 0.00 | 0.00 | 15 | |
| 20260506181451 | 68 | 356 | 8.0 | 6.0 | 0.00 | 0.00 | 0.00 | 16 | |
| 20260506180954 | 68 | 21 | 9.0 | 8.0 | 0.00 | 0.00 | 0.00 | 16 | |
| 20260506180456 | 68 | 27 | 5.0 | 9.0 | 0.00 | 0.00 | 0.00 | 17 | |
| 20260506175959 | 67 | 322 | 10.0 | 12.0 | 0.00 | 0.00 | 0.00 | 17 | |
| 20260506175501 | 67 | 311 | 9.0 | 5.0 | 0.00 | 0.00 | 0.00 | 18 | |
| 20260506175000 | 67 | 304 | 11.0 | 5.0 | 0.00 | 0.00 | 0.00 | 19 | |
| 20260506174004 | 66 | 339 | 9.0 | 11.0 | 0.00 | 0.00 | 0.00 | 20 | |
| 20260506173507 | 66 | 343 | 9.0 | 5.0 | 0.00 | 0.00 | 0.00 | 20 | |
| 20260506173009 | 66 | 34 | 11.0 | 11.0 | 0.00 | 0.00 | 0.00 | 21 | |
| 20260506172512 | 66 | 338 | 10.0 | 9.0 | 0.00 | 0.00 | 0.00 | 22 | |
| 20260506172011 | 65 | 325 | 8.0 | 11.0 | 0.00 | 0.00 | 0.00 | 23 | |
| 20260506171513 | 65 | 336 | 9.0 | 7.0 | 0.00 | 0.00 | 0.00 | 24 | |
| 20260506171015 | 65 | 6 | 10.0 | 6.0 | 0.00 | 0.00 | 0.00 | 23 | |
| 20260506170518 | 64 | 330 | 4.0 | 3.0 | 0.00 | 0.00 | 0.00 | 25 | |
| 20260506170020 | 64 | 316 | 5.0 | 5.0 | 0.00 | 0.00 | 0.00 | 27 | |
| 20260506165523 | 63 | 30 | 5.0 | 3.0 | 0.00 | 0.00 | 0.00 | 27 | |
| 20260506165022 | 62 | 333 | 6.0 | 2.0 | 0.00 | 0.00 | 0.00 | 29 | |
| 20260506164027 | 61 | 338 | 6.0 | 4.0 | 0.00 | 0.00 | 0.00 | 31 | |
| 20260506163529 | 61 | 8 | 0.0 | 0.0 | 0.00 | 0.00 | 0.00 | 31 | |
| 20260506163031 | 60 | 329 | 0.0 | 0.0 | 0.00 | 0.00 | 0.00 | 32 | |
| 20260506162535 | 60 | 21 | 7.0 | 6.0 | 0.00 | 0.00 | 0.00 | 33 | |
| 20260506162033 | 60 | 359 | 5.0 | 3.0 | 0.00 | 0.00 | 0.00 | 34 | |
| 20260506161037 | 59 | 323 | 0.0 | 0.0 | 0.00 | 0.00 | 0.00 | 36 | |
| 20260506160540 | 58 | 347 | 1.0 | 3.0 | 0.00 | 0.00 | 0.00 | 37 | |
| 20260506160042 | 58 | 302 | 0.0 | 0.0 | 0.00 | 0.00 | 0.00 | 38 | |
| 20260506155545 | 58 | 333 | 0.0 | 0.0 | 0.00 | 0.00 | 0.00 | 38 | |
| 20260506155045 | 57 | 335 | 3.0 | 7.0 | 0.00 | 0.00 | 0.00 | 39 | |
| 20260506154546 | 57 | 336 | 7.0 | 0.0 | 0.00 | 0.00 | 0.00 | 39 | |
| 20260506154048 | 56 | 122 | 0.0 | 0.0 | 0.00 | 0.00 | 0.00 | 40 | |
| 20260506153551 | 56 | 122 | 0.0 | 0.0 | 0.00 | 0.00 | 0.00 | 41 | |
| 20260506153053 | 55 | 122 | 0.0 | 0.0 | 0.00 | 0.00 | 0.00 | 41 | |
| 20260506152556 | 55 | 122 | 0.0 | 0.0 | 0.00 | 0.00 | 0.00 | 42 | |
| 20260506152055 | 55 | 122 | 0.0 | 0.0 | 0.00 | 0.00 | 0.00 | 43 | |
| 20260506151557 | 54 | 122 | 0.0 | 0.0 | 0.00 | 0.00 | 0.00 | 44 | |
| 20260506151059 | 54 | 122 | 0.0 | 0.0 | 0.00 | 0.00 | 0.00 | 45 | |
| 20260506150104 | 53 | 122 | 0.0 | 0.0 | 0.00 | 0.00 | 0.00 | 47 | |
| 20260506145606 | 53 | 122 | 0.0 | 0.0 | 0.00 | 0.00 | 0.00 | 48 | |
| 20260506145105 | 53 | 122 | 0.0 | 0.0 | 0.00 | 0.00 | 0.00 | 49 | |
| 20260506144608 | 52 | 122 | 0.0 | 0.0 | 0.00 | 0.00 | 0.00 | 50 | |
| 20260506144110 | 52 | 122 | 0.0 | 0.0 | 0.00 | 0.00 | 0.00 | 52 | |
| 20260506143612 | 51 | 122 | 0.0 | 0.0 | 0.00 | 0.00 | 0.00 | 54 | |
| 20260506143152 | 51 | 122 | 0.0 | 0.0 | 0.00 | 0.00 | 0.00 | 56 | |
| 20260506143115 | 51 | 122 | 0.0 | 0.0 | 0.00 | 0.00 | 0.00 | 56 | |
| 20260506142618 | 50 | 122 | 0.0 | 0.0 | 0.00 | 0.00 | 0.00 | 59 | |
| 20260506142116 | 50 | 122 | 0.0 | 0.0 | 0.00 | 0.00 | 0.00 | 61 | |
| 20260506141657 | 49 | 122 | 0.0 | 0.0 | 0.00 | 0.00 | 0.00 | 64 | |
| 20260506141619 | 49 | 122 | 0.0 | 0.0 | 0.00 | 0.00 | 0.00 | 64 | |
| 20260506141121 | 48 | 122 | 0.0 | 0.0 | 0.00 | 0.00 | 0.00 | 66 | |
| 20260506140623 | 48 | 122 | 0.0 | 0.0 | 0.00 | 0.00 | 0.00 | 68 | |
| 20260506140126 | 47 | 122 | 0.0 | 0.0 | 0.00 | 0.00 | 0.00 | 70 | |
| 20260506135628 | 47 | 122 | 0.0 | 0.0 | 0.00 | 0.00 | 0.00 | 71 | |
| 20260506135127 | 46 | 122 | 0.0 | 0.0 | 0.00 | 0.00 | 0.00 | 73 | |
| 20260506134631 | 46 | 122 | 0.0 | 0.0 | 0.00 | 0.00 | 0.00 | ||
| 20260506133634 | 45 | 122 | 0.0 | 0.0 | 0.00 | 0.00 | 0.00 | 76 | |
| 20260506133136 | 45 | 122 | 0.0 | 0.0 | 0.00 | 0.00 | 0.00 | 78 | |
| 20260506132639 | 44 | 122 | 0.0 | 0.0 | 0.00 | 0.00 | 0.00 | 80 | |
| 20260506131641 | 44 | 122 | 0.0 | 3.0 | 0.00 | 0.00 | 0.00 | 82 | |
| 20260506131143 | 44 | 142 | 5.0 | 5.0 | 0.00 | 0.00 | 0.00 | 84 | |
| 20260506130645 | 44 | 149 | 5.0 | 5.0 | 0.00 | 0.00 | 0.00 | 85 | |
| 20260506130147 | 43 | 150 | 6.0 | 6.0 | 0.00 | 0.00 | 0.00 | 87 | |
| 20260506125650 | 43 | 165 | 7.0 | 7.0 | 0.00 | 0.00 | 0.00 | 89 | |
| 20260506125150 | 43 | 173 | 7.0 | 7.0 | 0.00 | 0.00 | 0.00 | 91 | |
| 20260506124651 | 42 | 173 | 7.0 | 7.0 | 0.00 | 0.00 | 0.00 | 92 | |
| 20260506124154 | 42 | 173 | 6.0 | 7.0 | 0.00 | 0.00 | 0.00 | 94 | |
| 20260506123656 | 41 | 170 | 6.0 | 6.0 | 0.00 | 0.00 | 0.00 | 94 | |
| 20260506123337 | 41 | 165 | 6.0 | 6.0 | 0.00 | 0.00 | 0.00 | 96 | |
| 20260506123200 | 41 | 165 | 6.0 | 6.0 | 0.00 | 0.00 | 0.00 | 96 | |
| 20260506122701 | 40 | 169 | 6.0 | 7.0 | 0.00 | 0.00 | 0.00 | 96 | |
| 20260506122200 | 40 | 173 | 6.0 | 6.0 | 0.00 | 0.00 | 0.00 | 95 | |
| 20260506121702 | 40 | 170 | 5.0 | 6.0 | 0.00 | 0.00 | 0.00 | 95 | |
| 20260506120707 | 40 | 197 | 5.0 | 5.0 | 0.00 | 0.00 | 0.00 | 95 | |
| 20260506120209 | 40 | 205 | 5.0 | 5.0 | 0.00 | 0.00 | 0.00 | 95 | |
| 20260506115711 | 40 | 215 | 6.0 | 6.0 | 0.00 | 0.00 | 0.00 | 95 | |
| 20260506115210 | 40 | 195 | 7.0 | 6.0 | 0.00 | 0.00 | 0.00 | 95 | |
| 20260506114713 | 41 | 215 | 7.0 | 6.0 | 0.00 | 0.00 | 0.00 | 95 | |
| 20260506114215 | 41 | 207 | 7.0 | 7.0 | 0.00 | 0.00 | 0.00 | 95 | |
| 20260506113718 | 41 | 210 | 7.0 | 6.0 | 0.00 | 0.00 | 0.00 | 95 | |
| 20260506113220 | 41 | 231 | 6.0 | 6.0 | 0.00 | 0.00 | 0.00 | 95 | |
| 20260506112723 | 41 | 226 | 7.0 | 8.0 | 0.00 | 0.00 | 0.00 | 95 | |
| 20260506112221 | 41 | 214 | 8.0 | 8.0 | 0.00 | 0.00 | 0.00 | 95 | |
| 20260506111801 | 41 | 233 | 6.0 | 5.0 | 0.00 | 0.00 | 0.00 | 95 | |
| 20260506111724 | 41 | 233 | 6.0 | 5.0 | 0.00 | 0.00 | 0.00 | 95 | |
| 20260506111226 | 41 | 232 | 8.0 | 6.0 | 0.00 | 0.00 | 0.00 | 95 | |
| 20260506110728 | 41 | 242 | 7.0 | 6.0 | 0.00 | 0.00 | 0.00 | 95 | |
| 20260506110231 | 41 | 239 | 7.0 | 8.0 | 0.00 | 0.00 | 0.00 | 94 | |
| 20260506105232 | 41 | 221 | 8.0 | 9.0 | 0.00 | 0.00 | 0.00 | 94 | |
| 20260506104735 | 41 | 224 | 8.0 | 6.0 | 0.00 | 0.00 | 0.00 | 94 | |
| 20260506104237 | 41 | 231 | 8.0 | 7.0 | 0.00 | 0.00 | 0.00 | 94 | |
| 20260506103739 | 41 | 212 | 8.0 | 6.0 | 0.00 | 0.00 | 0.00 | 94 | |
| 20260506103242 | 42 | 218 | 7.0 | 9.0 | 0.00 | 0.00 | 0.00 | 94 | |
| 20260506102744 | 42 | 228 | 8.0 | 7.0 | 0.00 | 0.00 | 0.00 | 94 | |
| 20260506102243 | 42 | 236 | 8.0 | 5.0 | 0.00 | 0.00 | 0.00 | 94 | |
| 20260506101745 | 42 | 233 | 8.0 | 10.0 | 0.00 | 0.00 | 0.00 | 94 | |
| 20260506101248 | 42 | 224 | 8.0 | 10.0 | 0.00 | 0.00 | 0.00 | 94 | |
| 20260506100753 | 42 | 233 | 9.0 | 9.0 | 0.00 | 0.00 | 0.00 | 94 | |
| 20260506100252 | 42 | 218 | 9.0 | 7.0 | 0.00 | 0.00 | 0.00 | 94 | |
| 20260506095755 | 42 | 231 | 9.0 | 10.0 | 0.00 | 0.00 | 0.00 | 95 | |
| 20260506095254 | 42 | 225 | 8.0 | 9.0 | 0.00 | 0.00 | 0.00 | 94 | |
| 20260506094757 | 42 | 233 | 9.0 | 9.0 | 0.00 | 0.00 | 0.00 | 95 | |
| 20260506094259 | 42 | 228 | 10.0 | 11.0 | 0.00 | 0.00 | 0.00 | 95 | |
| 20260506093802 | 42 | 238 | 9.0 | 9.0 | 0.00 | 0.00 | 0.00 | 95 | |
| 20260506093303 | 42 | 236 | 9.0 | 8.0 | 0.00 | 0.00 | 0.00 | 95 | |
| 20260506092806 | 42 | 235 | 7.0 | 8.0 | 0.00 | 0.00 | 0.00 | 95 | |
| 20260506092306 | 42 | 242 | 8.0 | 6.0 | 0.00 | 0.00 | 0.00 | 95 | |
| 20260506091807 | 42 | 239 | 10.0 | 9.0 | 0.00 | 0.00 | 0.00 | 95 | |
| 20260506091309 | 42 | 228 | 10.0 | 8.0 | 0.00 | 0.00 | 0.00 | 96 | |
| 20260506090812 | 42 | 242 | 11.0 | 11.0 | 0.00 | 0.00 | 0.00 | 96 | |
| 20260506090314 | 42 | 232 | 12.0 | 11.0 | 0.00 | 0.00 | 0.00 | 96 | |
| 20260506085901 | 42 | 252 | 10.0 | 9.0 | 0.00 | 0.00 | 0.00 | 96 | |
| 20260506085816 | 42 | 252 | 10.0 | 9.0 | 0.00 | 0.00 | 0.00 | 96 | |
| 20260506085316 | 42 | 243 | 11.0 | 9.0 | 0.00 | 0.00 | 0.00 | 96 | |
| 20260506084818 | 43 | 235 | 14.0 | 15.0 | 0.00 | 0.00 | 0.00 | 96 | |
| 20260506084320 | 43 | 245 | 9.0 | 9.0 | 0.00 | 0.00 | 0.00 | 96 | |
| 20260506083823 | 43 | 231 | 11.0 | 15.0 | 0.00 | 0.00 | 0.00 | 96 | |
| 20260506082827 | 43 | 243 | 9.0 | 7.0 | 0.00 | 0.00 | 0.00 | 97 | |
| 20260506082327 | 43 | 239 | 10.0 | 7.0 | 0.00 | 0.00 | 0.00 | 97 | |
| 20260506081829 | 43 | 243 | 12.0 | 9.0 | 0.00 | 0.00 | 0.00 | 97 | |
| 20260506081539 | 43 | 229 | 12.0 | 12.0 | 0.00 | 0.00 | 0.00 | 97 | |
| 20260506081331 | 43 | 229 | 12.0 | 12.0 | 0.00 | 0.00 | 0.00 | 97 | |
| 20260506080834 | 43 | 222 | 13.0 | 9.0 | 0.00 | 0.00 | 0.00 | 97 | |
| 20260506080454 | 42 | 219 | 10.0 | 14.0 | 0.00 | 0.00 | 0.00 | 97 | |
| 20260506080336 | 42 | 219 | 10.0 | 14.0 | 0.00 | 0.00 | 0.00 | 97 | |
| 20260506073347 | 43 | 214 | 10.0 | 11.0 | 0.00 | 0.00 | 0.00 | 95 | |
| 20260506072849 | 43 | 222 | 10.0 | 15.0 | 0.00 | 0.00 | 0.00 | 95 | |
| 20260506072348 | 43 | 255 | 12.0 | 9.0 | 0.00 | 0.00 | 0.00 | 95 | |
| 20260506071851 | 43 | 207 | 10.0 | 9.0 | 0.00 | 0.00 | 0.00 | 94 | |
| 20260506071353 | 43 | 219 | 13.0 | 15.0 | 0.00 | 0.00 | 0.00 | 94 | |
| 20260506070358 | 43 | 228 | 13.0 | 11.0 | 0.00 | 0.00 | 0.00 | 93 | |
| 20260506062410 | 43 | 208 | 11.0 | 7.0 | 0.00 | 0.00 | 0.00 | 89 | |
| 20260506061912 | 44 | 232 | 13.0 | 13.0 | 0.00 | 0.00 | 0.00 | 89 | |
| 20260506061415 | 44 | 238 | 11.0 | 10.0 | 0.00 | 0.00 | 0.00 | 88 | |
| 20260506060917 | 44 | 235 | 10.0 | 7.0 | 0.00 | 0.00 | 0.00 | 87 | |
| 20260506060420 | 44 | 233 | 10.0 | 7.0 | 0.00 | 0.00 | 0.00 | 87 | |
| 20260506051104 | 45 | 221 | 12.0 | 11.0 | 0.00 | 0.00 | 0.00 | 80 | |
| 20260506050939 | 45 | 221 | 12.0 | 11.0 | 0.00 | 0.00 | 0.00 | 80 | |
| 20260506050441 | 45 | 214 | 12.0 | 11.0 | 0.00 | 0.00 | 0.00 | 79 | |
| 20260506044945 | 45 | 224 | 13.0 | 13.0 | 0.00 | 0.00 | 0.00 | 78 | |
| 20260506044448 | 45 | 233 | 11.0 | 10.0 | 0.00 | 0.00 | 0.00 | 77 | |
| 20260506043950 | 45 | 205 | 12.0 | 9.0 | 0.00 | 0.00 | 0.00 | 77 | |
| 20260506043453 | 45 | 212 | 11.0 | 11.0 | 0.00 | 0.00 | 0.00 | 76 | |
| 20260506042955 | 45 | 214 | 11.0 | 11.0 | 0.00 | 0.00 | 0.00 | 75 | |
| 20260506042454 | 45 | 217 | 8.0 | 13.0 | 0.00 | 0.00 | 0.00 | 74 | |
| 20260506041956 | 45 | 229 | 11.0 | 10.0 | 0.00 | 0.00 | 0.00 | 74 | |
| 20260506041458 | 45 | 215 | 11.0 | 9.0 | 0.00 | 0.00 | 0.00 | 72 | |
| 20260506041001 | 45 | 210 | 12.0 | 8.0 | 0.00 | 0.00 | 0.00 | 71 | |
| 20260506040006 | 46 | 222 | 12.0 | 10.0 | 0.00 | 0.00 | 0.00 | 69 | |
| 20260506035505 | 46 | 226 | 11.0 | 9.0 | 0.00 | 0.00 | 0.00 | 68 | |
| 20260506035007 | 46 | 210 | 12.0 | 13.0 | 0.00 | 0.00 | 0.00 | 66 | |
| 20260506034509 | 46 | 225 | 12.0 | 12.0 | 0.00 | 0.00 | 0.00 | 65 | |
| 20260506034012 | 46 | 201 | 10.0 | 10.0 | 0.00 | 0.00 | 0.00 | 64 | |
| 20260506033514 | 47 | 212 | 11.0 | 12.0 | 0.00 | 0.00 | 0.00 | 62 | |
| 20260506033056 | 47 | 224 | 11.0 | 13.0 | 0.00 | 0.00 | 0.00 | ||
| 20260506033018 | 47 | 224 | 11.0 | 13.0 | 0.00 | 0.00 | 0.00 | ||
| 20260506032516 | 47 | 214 | 8.0 | 11.0 | 0.00 | 0.00 | 0.00 | 59 | |
| 20260506031520 | 47 | 218 | 10.0 | 10.0 | 0.00 | 0.00 | 0.00 | 57 | |
| 20260506031023 | 47 | 219 | 8.0 | 10.0 | 0.00 | 0.00 | 0.00 | 56 | |
| 20260506030525 | 48 | 205 | 9.0 | 8.0 | 0.00 | 0.00 | 0.00 | 55 | |
| 20260506030027 | 48 | 219 | 10.0 | 9.0 | 0.00 | 0.00 | 0.00 | 54 | |
| 20260506025526 | 48 | 226 | 10.0 | 9.0 | 0.00 | 0.00 | 0.00 | 53 | |
| 20260506025128 | 57 | 210 | 11.0 | 14.0 | 0.00 | 0.00 | 0.00 | 36 | |
| 20260506025029 | 48 | 240 | 10.0 | 7.0 | 0.00 | 0.00 | 0.00 | 52 | |
| 20260506024531 | 49 | 222 | 8.0 | 12.0 | 0.00 | 0.00 | 0.00 | 51 | |
| 20260506024034 | 49 | 228 | 10.0 | 13.0 | 0.00 | 0.00 | 0.00 | 51 | |
| 20260506023536 | 49 | 229 | 10.0 | 12.0 | 0.00 | 0.00 | 0.00 | 50 | |
| 20260506023038 | 49 | 225 | 10.0 | 14.0 | 0.00 | 0.00 | 0.00 | 50 | |
| 20260506022537 | 49 | 229 | 11.0 | 13.0 | 0.00 | 0.00 | 0.00 | 49 | |
| 20260506022040 | 49 | 225 | 14.0 | 14.0 | 0.00 | 0.00 | 0.00 | 49 | |
| 20260506021542 | 50 | 242 | 10.0 | 6.0 | 0.00 | 0.00 | 0.00 | 49 | |
| 20260506021044 | 50 | 228 | 8.0 | 5.0 | 0.00 | 0.00 | 0.00 | 48 | |
| 20260506020547 | 50 | 218 | 10.0 | 10.0 | 0.00 | 0.00 | 0.00 | 48 | |
| 20260506020049 | 50 | 211 | 7.0 | 11.0 | 0.00 | 0.00 | 0.00 | 47 | |
| 20260506015548 | 51 | 201 | 11.0 | 13.0 | 0.00 | 0.00 | 0.00 | 46 | |
| 20260506015051 | 51 | 203 | 11.0 | 8.0 | 0.00 | 0.00 | 0.00 | 45 | |
| 20260506014553 | 52 | 231 | 9.0 | 11.0 | 0.00 | 0.00 | 0.00 | 44 | |
| 20260506014256 | 52 | 208 | 6.0 | 4.0 | 0.00 | 0.00 | 0.00 | 44 | |
| 20260506014055 | 52 | 208 | 6.0 | 4.0 | 0.00 | 0.00 | 0.00 | 44 | |
| 20260506013558 | 52 | 232 | 10.0 | 13.0 | 0.00 | 0.00 | 0.00 | 44 | |
| 20260506013100 | 53 | 233 | 7.0 | 7.0 | 0.00 | 0.00 | 0.00 | 43 | |
| 20260506012559 | 53 | 221 | 9.0 | 12.0 | 0.00 | 0.00 | 0.00 | 42 | |
| 20260506012146 | 54 | 215 | 9.0 | 10.0 | 0.00 | 0.00 | 0.00 | 40 | |
| 20260506012102 | 54 | 215 | 9.0 | 10.0 | 0.00 | 0.00 | 0.00 | 40 | |
| 20260506011604 | 55 | 221 | 9.0 | 15.0 | 0.00 | 0.00 | 0.00 | 40 | |
| 20260506011143 | 55 | 222 | 9.0 | 8.0 | 0.00 | 0.00 | 0.00 | 39 | |
| 20260506011106 | 55 | 222 | 9.0 | 8.0 | 0.00 | 0.00 | 0.00 | 39 | |
| 20260506010610 | 55 | 203 | 12.0 | 7.0 | 0.00 | 0.00 | 0.00 | 38 | |
| 20260506010111 | 55 | 226 | 10.0 | 10.0 | 0.00 | 0.00 | 0.00 | 38 | |
| 20260506005649 | 56 | 219 | 9.0 | 8.0 | 0.00 | 0.00 | 0.00 | 38 | |
| 20260506005610 | 56 | 219 | 9.0 | 8.0 | 0.00 | 0.00 | 0.00 | 38 | |
| 20260506005112 | 56 | 167 | 10.0 | 7.0 | 0.00 | 0.00 | 0.00 | 37 | |
| 20260506004615 | 56 | 211 | 6.0 | 5.0 | 0.00 | 0.00 | 0.00 | 37 | |
| 20260506004117 | 56 | 215 | 12.0 | 0.0 | 0.00 | 0.00 | 0.00 | 37 | |
| 20260506003122 | 57 | 210 | 11.0 | 14.0 | 0.00 | 0.00 | 0.00 | 36 | |
| 20260506002740 | 57 | 190 | 6.0 | 0.0 | 0.00 | 0.00 | 0.00 | 35 | |
| 20260506002622 | 57 | 190 | 6.0 | 0.0 | 0.00 | 0.00 | 0.00 | 35 | |
| 20260506002123 | 57 | 210 | 2.0 | 0.0 | 0.00 | 0.00 | 0.00 | 35 | |
| 20260506001626 | 57 | 207 | 8.0 | 0.0 | 0.00 | 0.00 | 0.00 | 35 | |
| 20260506001128 | 57 | 214 | 7.0 | 15.0 | 0.00 | 0.00 | 0.00 | 34 | |
| 20260506000704 | 57 | 236 | 7.0 | 10.0 | 0.00 | 0.00 | 0.00 | 35 | |
| 20260506000630 | 57 | 236 | 7.0 | 10.0 | 0.00 | 0.00 | 0.00 | 35 | |
| 20260505235633 | 57 | 224 | 11.0 | 5.0 | 0.00 | 0.00 | 0.00 | 35 | |
| 20260505235134 | 57 | 229 | 5.0 | 12.0 | 0.00 | 0.00 | 0.00 | 35 | |
| 20260505234637 | 57 | 229 | 9.0 | 10.0 | 0.00 | 0.00 | 0.00 | 36 | |
| 20260505234139 | 57 | 190 | 5.0 | 10.0 | 0.00 | 0.00 | 0.00 | 35 | |
| 20260505233641 | 57 | 225 | 11.0 | 12.0 | 0.00 | 0.00 | 0.00 | 35 | |
| 20260505233144 | 57 | 203 | 8.0 | 8.0 | 0.00 | 0.00 | 0.00 | 36 | |
| 20260505232643 | 57 | 218 | 12.0 | 9.0 | 0.00 | 0.00 | 0.00 | 36 | |
| 20260505232146 | 57 | 205 | 7.0 | 8.0 | 0.00 | 0.00 | 0.00 | 36 | |
| 20260505231647 | 57 | 169 | 11.0 | 8.0 | 0.00 | 0.00 | 0.00 | 37 | |
| 20260505231150 | 56 | 232 | 13.0 | 12.0 | 0.00 | 0.00 | 0.00 | 37 |